Back to catalog

STARLINK-30275

AliveCommunicationsVLEO
NORAD 57667·PAYLOAD·🇺🇸 United States

Launched Aug 22, 2023 from Vandenberg Space Force Base

Loading…

Next Passes (next 24 hours)

TLE

FreshSource: CelesTrak SupGP

Epoch: Sep 14, 2026, 22:10 UTC

1 57667C 23124E   26257.92409722  .00035352  00000+0  10439-2 0  2573
2 57667  53.1604  45.4582 0001152  44.5368 228.9315 15.34391688    18

Track STARLINK-30275 in real time with AllMySat

Download on the App Store